Location: Arbon
(43.0005°N, 0.7472°E)
Time: 10:47:00
(UTC+00:00)

SR - Pass Details

Date: 29 November 2020
Orbit: 575 x 880 km, 66.7° (Epoch: 21 January)

Event Time Altitude Azimuth Distance (km) Brightness Sun altitude
Rises 17:49:15 0° 199° (SSW) 2,784 ? -15.2°
Reaches altitude 10° 17:51:26 10° 196° (SSW) 1,906 ? -15.6°
Maximum altitude 17:55:38 59° 116° (ESE) 704 ? -16.3°
Enters shadow 17:57:52 27° 47° (NE) 1,196 ? -16.7°
Drops below altitude 10° 18:00:07 10° 38° (NE) 2,041 - -17.1°
Sets 18:02:31 0° 35° (NE) 3,003 - -17.6°
